| time (UTC) | temp F | wind direction | speed MPH | gust MPH | rain 1hr in | rain 24hr in | rain mn in | humidity % | barometer mb |
| 20260906101003 | 65 | 0 | 0.0 | 0.0 | 0.00 | 0.16 | 0.01 | 95 | 1014.6 |
| 20260906100003 | 65 | 213 | 0.0 | 1.0 | 0.00 | 0.16 | 0.01 | 95 | 1014.7 |
| 20260906095003 | 66 | 213 | 0.0 | 2.0 | 0.01 | 0.16 | 0.01 | 95 | 1014.7 |
| 20260906094003 | 66 | 213 | 0.0 | 1.0 | 0.01 | 0.16 | 0.01 | 95 | 1014.3 |
| 20260906093003 | 66 | 213 | 0.0 | 1.0 | 0.01 | 0.16 | 0.01 | 95 | 1014.4 |
| 20260906092003 | 65 | 0 | 0.0 | 0.0 | 0.01 | 0.16 | 0.01 | 95 | 1014.1 |
| 20260906091003 | 65 | 0 | 0.0 | 0.0 | 0.01 | 0.16 | 0.01 | 95 | 1014.3 |
| 20260906090024 | 64 | 0 | 0.0 | 0.0 | 0.01 | 0.16 | 0.01 | 95 | 1014.0 |
| 20260906085003 | 65 | 0 | 0.0 | 0.0 | 0.00 | 0.15 | 0.00 | 95 | 1014.2 |
| 20260906084003 | 65 | 0 | 0.0 | 0.0 | 0.00 | 0.15 | 0.00 | 95 | 1014.2 |
| 20260906083024 | 65 | 0 | 0.0 | 0.0 | 0.00 | 0.15 | 0.00 | 95 | 1014.2 |
| 20260906082024 | 65 | 0 | 0.0 | 0.0 | 0.00 | 0.15 | 0.00 | 95 | 1014.1 |
| 20260906081003 | 65 | 0 | 0.0 | 0.0 | 0.00 | 0.15 | 0.00 | 95 | 1013.9 |
| 20260906080003 | 65 | 0 | 0.0 | 0.0 | 0.00 | 0.15 | 0.00 | 95 | 1014.1 |
| 20260906075003 | 65 | 0 | 0.0 | 0.0 | 0.00 | 0.15 | 0.00 | 95 | 1014.2 |
| 20260906074024 | 65 | 0 | 0.0 | 0.0 | 0.00 | 0.15 | 0.00 | 95 | 1014.4 |
| 20260906073025 | 65 | 0 | 0.0 | 0.0 | 0.00 | 0.15 | 0.00 | 95 | 1014.4 |
| 20260906072004 | 65 | 0 | 0.0 | 0.0 | 0.00 | 0.15 | 0.00 | 95 | 1014.4 |
| 20260906071025 | 65 | 0 | 0.0 | 0.0 | 0.00 | 0.15 | 0.00 | 95 | 1014.2 |
| 20260906070004 | 65 | 0 | 0.0 | 0.0 | 0.00 | 0.15 | 0.00 | 95 | 1014.3 |
| 20260906065004 | 65 | 0 | 0.0 | 0.0 | 0.00 | 0.15 | 0.00 | 94 | 1014.3 |
| 20260906064024 | 66 | 0 | 0.0 | 0.0 | 0.00 | 0.15 | 0.00 | 94 | 1014.2 |
| 20260906063003 | 66 | 0 | 0.0 | 0.0 | 0.00 | 0.15 | 0.00 | 94 | 1014.3 |
| 20260906062003 | 66 | 0 | 0.0 | 0.0 | 0.00 | 0.15 | 0.00 | 94 | 1014.6 |
| 20260906061003 | 66 | 0 | 0.0 | 0.0 | 0.00 | 0.15 | 0.00 | 94 | 1014.9 |
| 20260906060003 | 66 | 0 | 0.0 | 0.0 | 0.00 | 0.15 | 0.00 | 94 | 1014.9 |
| 20260906055003 | 66 | 0 | 0.0 | 0.0 | 0.00 | 0.15 | 0.00 | 94 | 1015.0 |
| 20260906054003 | 66 | 0 | 0.0 | 0.0 | 0.00 | 0.15 | 0.00 | 94 | 1015.0 |
| 20260906053024 | 67 | 0 | 0.0 | 0.0 | 0.00 | 0.15 | 0.00 | 94 | 1015.1 |
| 20260906052003 | 67 | 213 | 0.0 | 2.0 | 0.00 | 0.15 | 0.00 | 94 | 1015.0 |
| 20260906051003 | 67 | 0 | 0.0 | 0.0 | 0.00 | 0.15 | 0.00 | 94 | 1015.2 |
| 20260906050003 | 67 | 0 | 0.0 | 0.0 | 0.00 | 0.15 | 0.00 | 94 | 1015.0 |
| 20260906045003 | 67 | 0 | 0.0 | 0.0 | 0.00 | 0.15 | 0.00 | 94 | 1015.0 |
| 20260906044024 | 67 | 0 | 0.0 | 0.0 | 0.00 | 0.15 | 0.00 | 94 | 1014.8 |
| 20260906043003 | 67 | 0 | 0.0 | 0.0 | 0.00 | 0.15 | 0.00 | 94 | 1014.9 |
| 20260906042003 | 67 | 0 | 0.0 | 0.0 | 0.00 | 0.15 | 0.00 | 94 | 1015.0 |
| 20260906041003 | 67 | 0 | 0.0 | 0.0 | 0.00 | 0.15 | 0.00 | 94 | 1015.0 |
| 20260906040004 | 67 | 0 | 0.0 | 0.0 | 0.00 | 0.15 | 0.00 | 94 | 1014.7 |
| 20260906035004 | 67 | 0 | 0.0 | 0.0 | 0.00 | 0.15 | 0.15 | 94 | 1014.8 |
| 20260906034004 | 67 | 0 | 0.0 | 0.0 | 0.00 | 0.15 | 0.15 | 94 | 1014.9 |
| 20260906033003 | 67 | 0 | 0.0 | 0.0 | 0.00 | 0.15 | 0.15 | 93 | 1015.0 |
| 20260906032003 | 67 | 0 | 0.0 | 0.0 | 0.00 | 0.15 | 0.15 | 93 | 1015.1 |
| 20260906031003 | 68 | 0 | 0.0 | 0.0 | 0.00 | 0.15 | 0.15 | 93 | 1015.3 |
| 20260906030003 | 68 | 0 | 0.0 | 0.0 | 0.00 | 0.15 | 0.15 | 93 | 1015.3 |
| 20260906025003 | 68 | 0 | 0.0 | 0.0 | 0.00 | 0.15 | 0.15 | 93 | 1015.5 |
| 20260906024003 | 68 | 0 | 0.0 | 0.0 | 0.00 | 0.15 | 0.15 | 92 | 1015.6 |
| 20260906023003 | 68 | 0 | 0.0 | 0.0 | 0.00 | 0.15 | 0.15 | 92 | 1015.7 |
| 20260906022003 | 68 | 0 | 0.0 | 0.0 | 0.00 | 0.15 | 0.15 | 92 | 1015.6 |
| 20260906021003 | 69 | 0 | 0.0 | 0.0 | 0.00 | 0.15 | 0.15 | 92 | 1015.5 |
| 20260906020025 | 69 | 0 | 0.0 | 0.0 | 0.00 | 0.15 | 0.15 | 92 | 1015.5 |
| 20260906015004 | 69 | 0 | 0.0 | 0.0 | 0.00 | 0.15 | 0.15 | 91 | 1015.5 |
| 20260906014003 | 70 | 0 | 0.0 | 0.0 | 0.00 | 0.15 | 0.15 | 91 | 1015.4 |
| 20260906013003 | 70 | 0 | 0.0 | 0.0 | 0.00 | 0.15 | 0.15 | 91 | 1015.2 |
| 20260906012003 | 70 | 0 | 0.0 | 0.0 | 0.05 | 0.15 | 0.15 | 90 | 1015.2 |
| 20260906011004 | 71 | 0 | 0.0 | 0.0 | 0.05 | 0.15 | 0.15 | 89 | 1015.0 |
| 20260906010003 | 71 | 0 | 0.0 | 0.0 | 0.05 | 0.15 | 0.15 | 89 | 1015.0 |
| 20260906005003 | 72 | 0 | 0.0 | 0.0 | 0.05 | 0.15 | 0.15 | 88 | 1014.8 |
| 20260906004003 | 73 | 0 | 0.0 | 0.0 | 0.05 | 0.15 | 0.15 | 85 | 1014.8 |
| 20260906003004 | 74 | 212 | 0.0 | 1.0 | 0.05 | 0.15 | 0.15 | 83 | 1014.8 |
| 20260906002024 | 75 | 0 | 0.0 | 0.0 | 0.00 | 0.10 | 0.11 | 82 | 1014.8 |
| 20260906001003 | 76 | 0 | 0.0 | 0.0 | 0.00 | 0.10 | 0.10 | 80 | 1014.3 |
| 20260906000024 | 76 | 0 | 0.0 | 0.0 | 0.00 | 0.10 | 0.10 | 79 | 1014.4 |
| 20260905235024 | 76 | 0 | 0.0 | 0.0 | 0.00 | 0.10 | 0.10 | 78 | 1014.3 |
| 20260905234003 | 77 | 212 | 0.0 | 1.0 | 0.00 | 0.10 | 0.10 | 77 | 1014.3 |
| 20260905233024 | 78 | 212 | 0.0 | 1.0 | 0.00 | 0.10 | 0.10 | 76 | 1014.3 |
| 20260905232003 | 78 | 176 | 0.0 | 4.0 | 0.00 | 0.10 | 0.10 | 75 | 1014.3 |
| 20260905231003 | 79 | 127 | 0.0 | 2.0 | 0.00 | 0.10 | 0.10 | 73 | 1014.1 |
| 20260905230024 | 80 | 126 | 0.0 | 3.0 | 0.00 | 0.10 | 0.10 | 71 | 1014.2 |
| 20260905225003 | 81 | 127 | 0.0 | 2.0 | 0.00 | 0.10 | 0.10 | 68 | 1014.3 |
| 20260905224024 | 82 | 127 | 0.0 | 2.0 | 0.00 | 0.10 | 0.10 | 66 | 1014.5 |
| 20260905223003 | 83 | 122 | 0.0 | 2.0 | 0.00 | 0.10 | 0.10 | 60 | 1014.4 |
| 20260905222003 | 83 | 119 | 0.0 | 3.0 | 0.00 | 0.10 | 0.10 | 64 | 1014.4 |
| 20260905221003 | 83 | 121 | 0.0 | 3.0 | 0.00 | 0.10 | 0.10 | 65 | 1014.3 |
| 20260905220004 | 83 | 352 | 1.0 | 3.0 | 0.00 | 0.10 | 0.10 | 64 | 1014.3 |
| 20260905215003 | 83 | 59 | 0.0 | 5.0 | 0.00 | 0.10 | 0.10 | 63 | 1014.2 |
| 20260905214003 | 83 | 100 | 0.0 | 5.0 | 0.00 | 0.10 | 0.10 | 64 | 1014.2 |
| 20260905213003 | 83 | 248 | 1.0 | 3.0 | 0.00 | 0.10 | 0.10 | 64 | 1014.2 |
| 20260905212003 | 83 | 291 | 0.0 | 4.0 | 0.00 | 0.10 | 0.10 | 64 | 1014.1 |
| 20260905211003 | 83 | 193 | 0.0 | 3.0 | 0.00 | 0.10 | 0.10 | 66 | 1014.0 |
| 20260905210004 | 82 | 340 | 1.0 | 3.0 | 0.00 | 0.10 | 0.10 | 67 | 1013.9 |
| 20260905205003 | 82 | 344 | 0.0 | 7.0 | 0.00 | 0.10 | 0.10 | 64 | 1013.8 |
| 20260905204003 | 82 | 169 | 0.0 | 3.0 | 0.00 | 0.10 | 0.10 | 66 | 1013.9 |
| 20260905203024 | 81 | 175 | 0.0 | 2.0 | 0.00 | 0.10 | 0.10 | 66 | 1013.9 |
| 20260905202003 | 80 | 144 | 0.0 | 2.0 | 0.00 | 0.10 | 0.10 | 68 | 1013.9 |
| 20260905201003 | 79 | 145 | 0.0 | 3.0 | 0.00 | 0.10 | 0.10 | 72 | 1013.7 |
| 20260905200003 | 78 | 255 | 0.0 | 2.0 | 0.00 | 0.10 | 0.10 | 74 | 1013.9 |
| 20260905195004 | 77 | 208 | 0.0 | 4.0 | 0.00 | 0.10 | 0.10 | 73 | 1014.0 |
| 20260905194003 | 76 | 172 | 1.0 | 4.0 | 0.00 | 0.10 | 0.10 | 75 | 1013.9 |
| 20260905193003 | 75 | 292 | 0.0 | 5.0 | 0.00 | 0.10 | 0.10 | 76 | 1014.0 |
| 20260905192024 | 75 | 98 | 0.0 | 5.0 | 0.00 | 0.10 | 0.10 | 78 | 1014.1 |
| 20260905191004 | 74 | 140 | 1.0 | 4.0 | 0.00 | 0.10 | 0.10 | 81 | 1014.2 |
| 20260905190024 | 73 | 144 | 1.0 | 6.0 | 0.00 | 0.10 | 0.10 | 82 | 1014.4 |
| 20260905185003 | 73 | 192 | 1.0 | 3.0 | 0.00 | 0.10 | 0.10 | 83 | 1014.5 |
| 20260905184003 | 72 | 91 | 1.0 | 6.0 | 0.00 | 0.10 | 0.10 | 83 | 1014.7 |
| 20260905183003 | 72 | 102 | 1.0 | 3.0 | 0.00 | 0.10 | 0.10 | 86 | 1014.8 |
| 20260905182003 | 71 | 94 | 1.0 | 7.0 | 0.00 | 0.10 | 0.10 | 86 | 1015.1 |
| 20260905181024 | 70 | 111 | 1.0 | 7.0 | 0.00 | 0.10 | 0.10 | 89 | 1015.2 |
| 20260905180004 | 70 | 16 | 0.0 | 5.0 | 0.01 | 0.10 | 0.10 | 90 | 1015.2 |
| 20260905175004 | 69 | 314 | 0.0 | 3.0 | 0.03 | 0.10 | 0.10 | 91 | 1015.4 |
| 20260905174024 | 69 | 313 | 0.0 | 1.0 | 0.03 | 0.10 | 0.10 | 92 | 1015.5 |
| 20260905173003 | 69 | 313 | 0.0 | 1.0 | 0.04 | 0.10 | 0.10 | 91 | 1015.6 |
| 20260905172003 | 69 | 313 | 0.0 | 1.0 | 0.04 | 0.10 | 0.10 | 90 | 1016.2 |
| 20260905171003 | 70 | 295 | 1.0 | 5.0 | 0.04 | 0.10 | 0.10 | 88 | 1016.7 |
| 20260905170003 | 71 | 240 | 0.0 | 2.0 | 0.03 | 0.09 | 0.09 | 89 | 1017.1 |
| 20260905165024 | 71 | 240 | 0.0 | 1.0 | 0.07 | 0.07 | 0.07 | 89 | 1017.6 |
| 20260905164003 | 72 | 240 | 0.0 | 1.0 | 0.07 | 0.07 | 0.07 | 88 | 1017.9 |
| 20260905163024 | 73 | 0 | 0.0 | 0.0 | 0.06 | 0.06 | 0.06 | 88 | 1018.3 |
| 20260905162003 | 74 | 240 | 0.0 | 1.0 | 0.06 | 0.06 | 0.06 | 86 | 1018.1 |
| 20260905161003 | 76 | 240 | 0.0 | 3.0 | 0.06 | 0.06 | 0.06 | 82 | 1017.4 |
| 20260905160003 | 78 | 46 | 1.0 | 8.0 | 0.06 | 0.06 | 0.06 | 77 | 1017.4 |
| 20260905155003 | 81 | 106 | 0.0 | 5.0 | 0.00 | 0.00 | 0.00 | 70 | 1016.9 |
| 20260905154003 | 82 | 83 | 0.0 | 3.0 | 0.00 | 0.00 | 0.00 | 72 | 1016.4 |
| 20260905153003 | 83 | 85 | 1.0 | 3.0 | 0.00 | 0.00 | 0.00 | 71 | 1016.5 |
| 20260905152003 | 82 | 150 | 0.0 | 3.0 | 0.00 | 0.00 | 0.00 | 72 | 1016.5 |
| 20260905151024 | 82 | 130 | 0.0 | 3.0 | 0.00 | 0.00 | 0.00 | 75 | 1016.6 |
| 20260905150003 | 81 | 119 | 1.0 | 5.0 | 0.00 | 0.00 | 0.00 | 75 | 1016.6 |
| 20260905145003 | 80 | 126 | 0.0 | 4.0 | 0.00 | 0.00 | 0.00 | 75 | 1016.2 |
| 20260905144003 | 80 | 194 | 0.0 | 3.0 | 0.00 | 0.00 | 0.00 | 76 | 1016.4 |
| 20260905143003 | 79 | 118 | 0.0 | 5.0 | 0.00 | 0.00 | 0.00 | 77 | 1016.5 |
| 20260905142024 | 79 | 89 | 1.0 | 5.0 | 0.00 | 0.00 | 0.00 | 78 | 1016.4 |
| 20260905141003 | 78 | 117 | 1.0 | 8.0 | 0.00 | 0.00 | 0.00 | 79 | 1016.5 |
| 20260905140004 | 78 | 77 | 1.0 | 3.0 | 0.00 | 0.00 | 0.00 | 81 | 1016.6 |
| 20260905135003 | 77 | 129 | 1.0 | 8.0 | 0.00 | 0.00 | 0.00 | 81 | 1016.5 |
| 20260905134003 | 76 | 131 | 1.0 | 2.0 | 0.00 | 0.00 | 0.00 | 84 | 1016.5 |
| 20260905133003 | 74 | 107 | 0.0 | 4.0 | 0.00 | 0.00 | 0.00 | 85 | 1016.3 |
| 20260905132003 | 73 | 113 | 0.0 | 2.0 | 0.00 | 0.00 | 0.00 | 87 | 1016.4 |
| 20260905131003 | 72 | 83 | 0.0 | 5.0 | 0.00 | 0.00 | 0.00 | 87 | 1016.5 |
| 20260905130024 | 71 | 106 | 0.0 | 3.0 | 0.00 | 0.00 | 0.00 | 89 | 1016.6 |
| 20260905125003 | 70 | 106 | 0.0 | 4.0 | 0.00 | 0.00 | 0.00 | 90 | 1016.7 |
| 20260905124025 | 69 | 136 | 0.0 | 2.0 | 0.00 | 0.00 | 0.00 | 92 | 1016.6 |
| 20260905123003 | 68 | 0 | 0.0 | 0.0 | 0.00 | 0.00 | 0.00 | 93 | 1016.4 |
| 20260905122025 | 68 | 0 | 0.0 | 0.0 | 0.00 | 0.00 | 0.00 | 94 | 1016.4 |
| 20260905121003 | 67 | 0 | 0.0 | 0.0 | 0.00 | 0.00 | 0.00 | 94 | 1016.4 |
| 20260905120003 | 66 | 0 | 0.0 | 0.0 | 0.00 | 0.00 | 0.00 | 94 | 1016.5 |
| 20260905115003 | 66 | 0 | 0.0 | 0.0 | 0.00 | 0.00 | 0.00 | 94 | 1016.6 |
| 20260905114024 | 66 | 0 | 0.0 | 0.0 | 0.00 | 0.00 | 0.00 | 94 | 1016.5 |
| 20260905113003 | 66 | 0 | 0.0 | 0.0 | 0.00 | 0.00 | 0.00 | 94 | 1016.4 |
| 20260905112003 | 66 | 306 | 0.0 | 2.0 | 0.00 | 0.00 | 0.00 | 94 | 1016.3 |
| 20260905111003 | 65 | 306 | 0.0 | 1.0 | 0.00 | 0.00 | 0.00 | 94 | 1016.4 |
| 20260905110003 | 65 | 0 | 0.0 | 0.0 | 0.00 | 0.00 | 0.00 | 95 | 1016.1 |
| 20260905105003 | 65 | 0 | 0.0 | 0.0 | 0.00 | 0.00 | 0.00 | 95 | 1016.0 |
| 20260905104003 | 65 | 0 | 0.0 | 0.0 | 0.00 | 0.00 | 0.00 | 94 | 1016.0 |
| 20260905103003 | 65 | 0 | 0.0 | 0.0 | 0.00 | 0.00 | 0.00 | 94 | 1016.1 |
| 20260905102003 | 65 | 0 | 0.0 | 0.0 | 0.00 | 0.00 | 0.00 | 94 | 1016.1 |